Time,TemperatureF,DewpointF,PressureIn,WindDirection,WindDirectionDegrees,WindSpeedMPH,WindSpeedGustMPH,Humidity,HourlyPrecipIn,Conditions,Clouds,dailyrainin,SoftwareType,DateUTC
2013-09-26 00:12:00,55.8,47.0,29.47,WSW,237,0.0,3.0,71,0.00,,,0.00,weatherlink.com 1.10,2013-09-26 07:12:00,
2013-09-26 00:27:00,55.1,46.0,29.46,WSW,237,0.0,2.0,72,0.00,,,0.00,weatherlink.com 1.10,2013-09-26 07:27:00,
2013-09-26 00:42:00,54.6,46.0,29.47,WSW,240,0.0,2.0,74,0.00,,,0.00,weatherlink.com 1.10,2013-09-26 07:42:00,
2013-09-26 00:57:00,54.3,46.0,29.46,ESE,112,0.0,3.0,74,0.00,,,0.00,weatherlink.com 1.10,2013-09-26 07:57:00,
2013-09-26 01:12:00,57.1,44.0,29.46,ESE,123,2.0,7.0,62,0.00,,,0.00,weatherlink.com 1.10,2013-09-26 08:12:00,
2013-09-26 01:27:00,59.1,45.0,29.46,SSW,196,1.0,3.0,59,0.00,,,0.00,weatherlink.com 1.10,2013-09-26 08:27:00,
2013-09-26 01:42:00,60.0,44.0,29.46,ESE,123,2.0,4.0,55,0.00,,,0.00,weatherlink.com 1.10,2013-09-26 08:42:00,
2013-09-26 01:58:00,61.5,44.0,29.47,SSE,163,0.0,7.0,54,0.00,,,0.00,weatherlink.com 1.10,2013-09-26 08:58:00,
2013-09-26 02:13:00,62.5,46.0,29.46,ESE,115,0.0,5.0,55,0.00,,,0.00,weatherlink.com 1.10,2013-09-26 09:13:00,
2013-09-26 02:28:00,62.8,46.0,29.46,SSE,148,3.0,4.0,55,0.00,,,0.00,weatherlink.com 1.10,2013-09-26 09:28:00,
2013-09-26 02:43:00,62.7,46.0,29.46,South,183,0.0,4.0,55,0.00,,,0.00,weatherlink.com 1.10,2013-09-26 09:43:00,
2013-09-26 02:58:00,62.4,47.0,29.46,SE,142,0.0,6.0,57,0.00,,,0.00,weatherlink.com 1.10,2013-09-26 09:58:00,
2013-09-26 03:13:00,62.7,47.0,29.45,SE,135,4.0,7.0,57,0.00,,,0.00,weatherlink.com 1.10,2013-09-26 10:13:00,
2013-09-26 03:28:00,63.7,47.0,29.45,SE,130,3.0,6.0,54,0.00,,,0.00,weatherlink.com 1.10,2013-09-26 10:28:00,
2013-09-26 03:43:00,63.8,46.0,29.45,ESE,116,1.0,5.0,52,0.00,,,0.00,weatherlink.com 1.10,2013-09-26 10:43:00,
2013-09-26 03:58:00,63.2,45.0,29.45,SSE,147,0.0,3.0,52,0.00,,,0.00,weatherlink.com 1.10,2013-09-26 10:58:00,
2013-09-26 04:13:00,62.7,44.0,29.45,SSE,148,1.0,10.0,50,0.00,,,0.00,weatherlink.com 1.10,2013-09-26 11:13:00,
2013-09-26 04:28:00,63.1,43.0,29.45,SE,125,5.0,8.0,48,0.00,,,0.00,weatherlink.com 1.10,2013-09-26 11:28:00,
2013-09-26 04:43:00,63.8,42.0,29.45,ESE,114,2.0,11.0,46,0.00,,,0.00,weatherlink.com 1.10,2013-09-26 11:43:00,
2013-09-26 04:58:00,64.3,42.0,29.45,SE,136,5.0,11.0,45,0.00,,,0.00,weatherlink.com 1.10,2013-09-26 11:58:00,
2013-09-26 05:13:00,63.7,42.0,29.45,ESE,115,2.0,10.0,45,0.00,,,0.00,weatherlink.com 1.10,2013-09-26 12:13:00,
2013-09-26 05:28:00,63.4,42.0,29.45,East,84,3.0,10.0,45,0.00,,,0.00,weatherlink.com 1.10,2013-09-26 12:28:00,
2013-09-26 05:43:00,63.1,41.0,29.45,East,94,6.0,10.0,44,0.00,,,0.00,weatherlink.com 1.10,2013-09-26 12:43:00,
2013-09-26 05:58:00,62.9,40.0,29.45,SE,132,5.0,9.0,43,0.00,,,0.00,weatherlink.com 1.10,2013-09-26 12:58:00,
2013-09-26 06:13:00,62.3,39.0,29.46,SE,124,1.0,5.0,43,0.00,,,0.00,weatherlink.com 1.10,2013-09-26 13:13:00,
2013-09-26 06:28:00,61.4,39.0,29.46,ESE,106,0.0,6.0,44,0.00,,,0.00,weatherlink.com 1.10,2013-09-26 13:28:00,
2013-09-26 06:43:00,60.1,42.0,29.46,ESE,107,0.0,4.0,51,0.00,,,0.00,weatherlink.com 1.10,2013-09-26 13:43:00,
2013-09-26 06:58:00,58.8,41.0,29.45,ESE,116,3.0,4.0,52,0.00,,,0.00,weatherlink.com 1.10,2013-09-26 13:58:00,
2013-09-26 07:13:00,60.2,41.0,29.46,ESE,116,2.0,7.0,49,0.00,,,0.00,weatherlink.com 1.10,2013-09-26 14:13:00,
2013-09-26 07:28:00,62.7,43.0,29.46,SE,133,1.0,4.0,48,0.00,,,0.00,weatherlink.com 1.10,2013-09-26 14:28:00,
2013-09-26 07:43:00,65.6,44.0,29.46,ESE,102,4.0,8.0,45,0.00,,,0.00,weatherlink.com 1.10,2013-09-26 14:43:00,
2013-09-26 07:58:00,67.8,43.0,29.46,East,89,5.0,8.0,41,0.00,,,0.00,weatherlink.com 1.10,2013-09-26 14:58:00,
2013-09-26 08:13:00,69.5,42.0,29.46,SSE,157,3.0,10.0,37,0.00,,,0.00,weatherlink.com 1.10,2013-09-26 15:13:00,
2013-09-26 08:28:00,70.7,41.0,29.46,SE,129,5.0,15.0,34,0.00,,,0.00,weatherlink.com 1.10,2013-09-26 15:28:00,
2013-09-26 08:43:00,72.0,43.0,29.45,ENE,78,3.0,12.0,35,0.00,,,0.00,weatherlink.com 1.10,2013-09-26 15:43:00,
2013-09-26 08:58:00,72.9,43.0,29.46,SSE,148,6.0,14.0,34,0.00,,,0.00,weatherlink.com 1.10,2013-09-26 15:58:00,
2013-09-26 09:28:00,73.8,44.0,29.45,SW,222,4.0,13.0,34,0.00,,,0.00,weatherlink.com 1.10,2013-09-26 16:28:00,
2013-09-26 09:43:00,74.3,43.0,29.45,West,261,4.0,12.0,33,0.00,,,0.00,weatherlink.com 1.10,2013-09-26 16:43:00,
2013-09-26 09:58:00,75.3,44.0,29.45,East,101,3.0,12.0,33,0.00,,,0.00,weatherlink.com 1.10,2013-09-26 16:58:00,
2013-09-26 10:13:00,76.0,44.0,29.45,SW,218,3.0,15.0,32,0.00,,,0.00,weatherlink.com 1.10,2013-09-26 17:13:00,
2013-09-26 10:28:00,76.8,46.0,29.44,ESE,107,3.0,10.0,33,0.00,,,0.00,weatherlink.com 1.10,2013-09-26 17:28:00,
2013-09-26 10:43:00,77.0,45.0,29.44,ESE,122,7.0,12.0,32,0.00,,,0.00,weatherlink.com 1.10,2013-09-26 17:43:00,
2013-09-26 10:59:00,78.0,47.0,29.43,West,279,3.0,12.0,33,0.00,,,0.00,weatherlink.com 1.10,2013-09-26 17:59:00,
2013-09-26 11:14:00,77.6,47.0,29.43,SW,215,11.0,19.0,34,0.00,,,0.00,weatherlink.com 1.10,2013-09-26 18:14:00,
2013-09-26 11:29:00,77.5,46.0,29.42,ESE,106,3.0,17.0,33,0.00,,,0.00,weatherlink.com 1.10,2013-09-26 18:29:00,
2013-09-26 11:44:00,78.6,46.0,29.41,SSE,157,4.0,16.0,32,0.00,,,0.00,weatherlink.com 1.10,2013-09-26 18:44:00,
2013-09-26 11:59:00,78.6,45.0,29.41,ESE,109,2.0,13.0,30,0.00,,,0.00,weatherlink.com 1.10,2013-09-26 18:59:00,
2013-09-26 12:14:00,78.8,45.0,29.40,SSW,202,2.0,21.0,30,0.00,,,0.00,weatherlink.com 1.10,2013-09-26 19:14:00,
2013-09-26 12:29:00,79.4,45.0,29.39,ESE,121,14.0,14.0,30,0.00,,,0.00,weatherlink.com 1.10,2013-09-26 19:29:00,
2013-09-26 12:44:00,79.6,46.0,29.39,East,94,2.0,15.0,31,0.00,,,0.00,weatherlink.com 1.10,2013-09-26 19:44:00,
2013-09-26 12:59:00,79.8,45.0,29.39,SSW,196,4.0,15.0,29,0.00,,,0.00,weatherlink.com 1.10,2013-09-26 19:59:00,
2013-09-26 13:14:00,79.9,45.0,29.39,West,264,4.0,18.0,29,0.00,,,0.00,weatherlink.com 1.10,2013-09-26 20:14:00,
2013-09-26 13:29:00,80.4,46.0,29.39,South,169,5.0,19.0,30,0.00,,,0.00,weatherlink.com 1.10,2013-09-26 20:29:00,
2013-09-26 13:44:00,80.1,46.0,29.38,SW,224,4.0,13.0,30,0.00,,,0.00,weatherlink.com 1.10,2013-09-26 20:44:00,
2013-09-26 13:59:00,80.6,46.0,29.39,South,185,10.0,12.0,30,0.00,,,0.00,weatherlink.com 1.10,2013-09-26 20:59:00,
2013-09-26 14:14:00,80.7,47.0,29.39,SSW,195,1.0,14.0,31,0.00,,,0.00,weatherlink.com 1.10,2013-09-26 21:14:00,
2013-09-26 14:29:00,81.3,47.0,29.39,SW,230,4.0,15.0,30,0.00,,,0.00,weatherlink.com 1.10,2013-09-26 21:29:00,
2013-09-26 14:44:00,81.5,48.0,29.38,East,80,13.0,18.0,31,0.00,,,0.00,weatherlink.com 1.10,2013-09-26 21:44:00,
2013-09-26 14:59:00,81.9,48.0,29.38,ESE,113,4.0,14.0,31,0.00,,,0.00,weatherlink.com 1.10,2013-09-26 21:59:00,
2013-09-26 15:14:00,80.8,48.0,29.38,South,173,2.0,15.0,32,0.00,,,0.00,weatherlink.com 1.10,2013-09-26 22:14:00,
2013-09-26 15:29:00,81.2,48.0,29.38,SW,225,4.0,15.0,31,0.00,,,0.00,weatherlink.com 1.10,2013-09-26 22:29:00,
2013-09-26 15:44:00,81.2,49.0,29.38,South,183,1.0,13.0,32,0.00,,,0.00,weatherlink.com 1.10,2013-09-26 22:44:00,
2013-09-26 15:59:00,81.0,49.0,29.38,SW,216,7.0,16.0,33,0.00,,,0.00,weatherlink.com 1.10,2013-09-26 22:59:00,
2013-09-26 16:14:00,81.4,49.0,29.38,SW,234,3.0,14.0,32,0.00,,,0.00,weatherlink.com 1.10,2013-09-26 23:14:00,
2013-09-26 16:29:00,81.5,43.0,29.38,SSW,196,3.0,15.0,26,0.00,,,0.00,weatherlink.com 1.10,2013-09-26 23:29:00,
2013-09-26 16:44:00,80.9,43.0,29.38,SSW,207,11.0,18.0,26,0.00,,,0.00,weatherlink.com 1.10,2013-09-26 23:44:00,
2013-09-26 16:59:00,79.7,43.0,29.38,SSW,202,8.0,19.0,27,0.00,,,0.00,weatherlink.com 1.10,2013-09-26 23:59:00,
2013-09-26 17:14:00,78.4,43.0,29.38,SSW,209,7.0,17.0,28,0.00,,,0.00,weatherlink.com 1.10,2013-09-27 00:14:00,
2013-09-26 17:29:00,77.8,43.0,29.38,SW,221,2.0,10.0,29,0.00,,,0.00,weatherlink.com 1.10,2013-09-27 00:29:00,
2013-09-26 17:44:00,77.1,42.0,29.38,ESE,123,1.0,10.0,29,0.00,,,0.00,weatherlink.com 1.10,2013-09-27 00:44:00,
2013-09-26 17:59:00,76.1,44.0,29.39,SSW,209,10.0,17.0,32,0.00,,,0.00,weatherlink.com 1.10,2013-09-27 00:59:00,
2013-09-26 18:14:00,75.7,45.0,29.39,South,177,3.0,15.0,33,0.00,,,0.00,weatherlink.com 1.10,2013-09-27 01:14:00,
2013-09-26 18:29:00,75.1,44.0,29.39,West,280,3.0,12.0,33,0.00,,,0.00,weatherlink.com 1.10,2013-09-27 01:29:00,
2013-09-26 18:44:00,74.5,42.0,29.40,SSW,204,1.0,8.0,31,0.00,,,0.00,weatherlink.com 1.10,2013-09-27 01:44:00,
2013-09-26 18:59:00,73.8,44.0,29.40,WSW,256,0.0,3.0,34,0.00,,,0.00,weatherlink.com 1.10,2013-09-27 01:59:00,
2013-09-26 19:14:00,73.3,37.0,29.41,North,5,2.0,8.0,27,0.00,,,0.00,weatherlink.com 1.10,2013-09-27 02:14:00,
2013-09-26 19:29:00,71.6,35.0,29.42,WNW,301,2.0,8.0,26,0.00,,,0.00,weatherlink.com 1.10,2013-09-27 02:29:00,
2013-09-26 19:44:00,70.5,34.0,29.43,West,276,2.0,9.0,26,0.00,,,0.00,weatherlink.com 1.10,2013-09-27 02:44:00,
2013-09-26 19:59:00,69.8,34.0,29.44,NNW,339,2.0,8.0,27,0.00,,,0.00,weatherlink.com 1.10,2013-09-27 02:59:00,
2013-09-26 20:14:00,69.2,33.0,29.45,North,349,2.0,12.0,26,0.00,,,0.00,weatherlink.com 1.10,2013-09-27 03:14:00,
2013-09-26 20:29:00,68.9,31.0,29.45,North,350,3.0,15.0,24,0.00,,,0.00,weatherlink.com 1.10,2013-09-27 03:29:00,
2013-09-26 20:44:00,68.5,31.0,29.46,NW,304,6.0,14.0,25,0.00,,,0.00,weatherlink.com 1.10,2013-09-27 03:44:00,
2013-09-26 20:58:00,68.3,31.0,29.46,NNW,335,11.0,15.0,25,0.00,,,0.00,weatherlink.com 1.10,2013-09-27 03:58:00,
2013-09-26 21:13:00,68.0,31.0,29.47,North,355,4.0,12.0,25,0.00,,,0.00,weatherlink.com 1.10,2013-09-27 04:13:00,
2013-09-26 21:29:00,67.6,29.0,29.48,NNW,334,3.0,12.0,24,0.00,,,0.00,weatherlink.com 1.10,2013-09-27 04:29:00,
2013-09-26 21:44:00,67.4,29.0,29.48,NE,37,3.0,13.0,24,0.00,,,0.00,weatherlink.com 1.10,2013-09-27 04:44:00,
2013-09-26 21:59:00,67.2,28.0,29.49,NNW,337,4.0,16.0,23,0.00,,,0.00,weatherlink.com 1.10,2013-09-27 04:59:00,
2013-09-26 22:14:00,66.6,30.0,29.49,WNW,282,7.0,13.0,25,0.00,,,0.00,weatherlink.com 1.10,2013-09-27 05:14:00,
2013-09-26 22:29:00,66.2,29.0,29.50,NW,311,5.0,12.0,25,0.00,,,0.00,weatherlink.com 1.10,2013-09-27 05:29:00,
2013-09-26 22:44:00,66.0,29.0,29.50,West,271,2.0,15.0,25,0.00,,,0.00,weatherlink.com 1.10,2013-09-27 05:44:00,
2013-09-26 22:59:00,65.6,31.0,29.50,North,351,7.0,15.0,27,0.00,,,0.00,weatherlink.com 1.10,2013-09-27 05:59:00,
2013-09-26 23:14:00,65.2,30.0,29.50,NW,323,2.0,11.0,27,0.00,,,0.00,weatherlink.com 1.10,2013-09-27 06:14:00,
2013-09-26 23:29:00,65.0,30.0,29.50,NNW,337,7.0,18.0,27,0.00,,,0.00,weatherlink.com 1.10,2013-09-27 06:29:00,
2013-09-26 23:44:00,64.8,30.0,29.51,NNW,338,2.0,12.0,27,0.00,,,0.00,weatherlink.com 1.10,2013-09-27 06:44:00,
2013-09-26 23:59:00,64.6,30.0,29.51,North,11,2.0,10.0,27,0.00,,,0.00,weatherlink.com 1.10,2013-09-27 06:59:00,